FW6069 Weather Reports


Display with metric or nautical units.
time (UTC)temp
F
wind
direction
speed
MPH
gust
MPH
rain 1hr
in
rain 24hr
in
rain mn
in
humidity
%
barometer
mb
20260510204439 83 51 0.0 0.0 0.00 0.00 0.00 76 1014.7
20260510203438 83 334 0.0 0.0 0.00 0.00 0.00 75 1014.7
20260510202939 84 88 0.0 0.0 0.00 0.00 0.00 74 1014.7
20260510202444 85 355 0.0 0.0 0.00 0.00 0.00 73 1014.6
20260510202440 84 143 0.0 0.0 0.00 0.00 0.00 75 1014.7
20260510201438 86 63 0.0 0.0 0.00 0.00 0.00 73 1014.6
20260510200938 86 60 0.0 0.0 0.00 0.00 0.00 74 1014.5
20260510200443 86 233 0.0 0.0 0.00 0.00 0.00 76 1014.4
20260510200439 86 233 0.0 0.0 0.00 0.00 0.00 77 1014.5
20260510195937 86 233 0.0 0.0 0.00 0.00 0.00 75 1014.4
20260510195542 87 238 0.0 0.0 0.00 0.00 0.00 74 1014.2
20260510194441 85 281 0.0 0.0 0.00 0.00 0.00 76 1014.2
20260510194436 86 245 0.0 0.0 0.00 0.00 0.00 74 1014.2
20260510193439 85 281 0.0 0.0 0.00 0.00 0.00 77 1014.3
20260510193435 85 191 0.0 0.0 0.00 0.00 0.00 79 1014.1
20260510192434 85 191 0.0 0.0 0.00 0.00 0.00 79 1014.0
20260510191933 84 191 0.0 0.0 0.00 0.00 0.00 79 1014.1
20260510191430 84 191 0.0 0.0 0.00 0.00 0.00 79 1014.2
20260510190932 84 191 0.0 0.0 0.00 0.00 0.00 78 1014.1
20260510190430 84 191 0.0 0.0 0.00 0.00 0.00 77 1014.1
20260510185929 84 191 0.0 0.0 0.00 0.00 0.00 76 1014.2
20260510185432 85 190 0.0 0.0 0.00 0.00 0.00 74 1014.3
20260510185428 85 190 0.0 0.0 0.00 0.00 0.00 76 1014.3
20260510184428 86 190 0.0 0.0 0.00 0.00 0.00 74 1014.3
20260510183932 87 128 0.0 0.0 0.00 0.00 0.00 71 1014.4
20260510183928 86 190 0.0 0.0 0.00 0.00 0.00 72 1014.4
20260510182928 87 128 0.0 0.0 0.00 0.00 0.00 70 1014.5
20260510182426 88 128 0.0 0.0 0.00 0.00 0.00 68 1014.5
20260510181926 90 284 0.0 0.0 0.00 0.00 0.00 66 1014.5
20260510181426 91 283 0.0 0.0 0.00 0.00 0.00 61 1014.4
20260510180927 90 280 0.0 0.0 0.00 0.00 0.00 65 1014.5
20260510180426 90 276 0.0 0.0 0.00 0.00 0.00 66 1014.6
20260510175931 89 262 0.0 0.0 0.00 0.00 0.00 68 1014.8
20260510175926 90 276 0.0 0.0 0.00 0.00 0.00 65 1014.6
20260510175536 88 262 0.0 0.0 0.00 0.00 0.00 67 1014.9
20260510175426 89 302 0.0 0.0 0.00 0.00 0.00 65 1014.7
20260510173926 88 205 0.0 0.0 0.00 0.00 0.00 67 1015.0
20260510173424 89 260 0.0 0.0 0.00 0.00 0.00 65 1015.0
20260510172926 88 259 0.0 0.0 0.00 0.00 0.00 69 1015.1
20260510172424 88 259 0.0 0.0 0.00 0.00 0.00 67 1015.2
20260510171925 88 231 0.0 0.0 0.00 0.00 0.00 68 1015.2
20260510171424 87 267 0.0 0.0 0.00 0.00 0.00 71 1015.2
20260510170925 87 264 0.0 0.0 0.00 0.00 0.00 72 1015.3
20260510170425 88 262 0.0 0.0 0.00 0.00 0.00 69 1015.4
20260510165924 87 258 0.0 0.0 0.00 0.00 0.00 69 1015.5
20260510165424 88 238 0.0 0.0 0.00 0.00 0.00 70 1015.6
20260510164925 88 238 0.0 0.0 0.00 0.00 0.00 70 1015.7
20260510164427 87 233 0.0 0.0 0.00 0.00 0.00 72 1015.8
20260510164422 87 235 0.0 0.0 0.00 0.00 0.00 71 1015.8
20260510164030 88 233 0.0 0.0 0.00 0.00 0.00 73 1015.9
20260510162922 88 233 0.0 0.0 0.00 0.00 0.00 71 1015.9
20260510162427 87 237 0.0 0.0 0.00 0.00 0.00 74 1016.0
20260510162422 88 40 0.0 0.0 0.00 0.00 0.00 71 1015.9
20260510161422 86 236 0.0 0.0 0.00 0.00 0.00 76 1015.9
20260510160923 86 264 0.0 0.0 0.00 0.00 0.00 77 1016.0
20260510160424 85 264 0.0 0.0 0.00 0.00 0.00 76 1016.0
20260510155924 85 265 0.0 0.0 0.00 0.00 0.00 76 1016.1
20260510155421 85 256 0.0 0.0 0.00 0.00 0.00 75 1016.0
20260510154921 85 256 0.0 0.0 0.00 0.00 0.00 76 1016.0
20260510154420 85 256 0.0 0.0 0.00 0.00 0.00 78 1016.0
20260510153919 84 281 0.0 0.0 0.00 0.00 0.00 79 1016.0
20260510153421 84 281 0.0 0.0 0.00 0.00 0.00 78 1016.1
20260510152920 84 281 0.0 0.0 0.00 0.00 0.00 79 1016.0
20260510152420 85 291 0.0 0.0 0.00 0.00 0.00 77 1016.0
20260510151920 85 117 0.0 0.0 0.00 0.00 0.00 78 1015.9
20260510151420 84 297 0.0 0.0 0.00 0.00 0.00 79 1015.9
20260510150919 84 275 0.0 0.0 0.00 0.00 0.00 77 1015.8
20260510150419 84 275 0.0 0.0 0.00 0.00 0.00 78 1015.9
20260510145917 84 277 0.0 0.0 0.00 0.00 0.00 79 1015.9
20260510145419 84 284 0.0 0.0 0.00 0.00 0.00 79 1015.9
20260510144924 83 284 0.0 0.0 0.00 0.00 0.00 81 1015.8
20260510144918 83 284 0.0 0.0 0.00 0.00 0.00 79 1015.9
20260510144525 83 284 0.0 0.0 0.00 0.00 0.00 80 1015.7
20260510143418 82 278 0.0 0.0 0.00 0.00 0.00 83 1015.8
20260510142917 82 281 0.0 0.0 0.00 0.00 0.00 83 1015.9
20260510142418 81 281 0.0 0.0 0.00 0.00 0.00 85 1016.0
20260510141917 81 281 0.0 0.0 0.00 0.00 0.00 85 1016.0
20260510141418 80 279 0.0 0.0 0.00 0.00 0.00 86 1015.9
20260510140918 80 279 0.0 0.0 0.00 0.00 0.00 86 1015.9
20260510140423 80 279 0.0 0.0 0.00 0.00 0.00 87 1015.8
20260510140418 80 279 0.0 0.0 0.00 0.00 0.00 87 1015.9
20260510135416 80 279 0.0 0.0 0.00 0.00 0.00 87 1015.7
20260510134920 79 132 0.0 0.0 0.00 0.00 0.00 90 1015.6
20260510134914 80 279 0.0 0.0 0.00 0.00 0.00 88 1015.6
20260510134415 79 284 0.0 0.0 0.00 0.00 0.00 88 1015.6
20260510134019 78 132 0.0 0.0 0.00 0.00 0.00 90 1015.5
20260510133517 79 132 0.0 0.0 0.00 0.00 0.00 90 1015.5
20260510133017 78 132 0.0 0.0 0.00 0.00 0.00 91 1015.4
20260510131912 78 132 0.0 0.0 0.00 0.00 0.00 92 1015.5
20260510131412 78 132 0.0 0.0 0.00 0.00 0.00 92 1015.5
20260510130911 78 132 0.0 0.0 0.00 0.00 0.00 92 1015.3
20260510130412 78 132 0.0 0.0 0.00 0.00 0.00 93 1015.3
20260510125911 77 132 0.0 0.0 0.00 0.00 0.00 93 1015.3
20260510125412 77 132 0.0 0.0 0.00 0.00 0.00 93 1015.2
20260510124911 77 132 0.0 0.0 0.00 0.00 0.00 93 1015.2
20260510124412 76 132 0.0 0.0 0.00 0.00 0.00 93 1015.2
20260510123918 75 132 0.0 0.0 0.00 0.00 0.00 93 1015.2
20260510123911 76 132 0.0 0.0 0.00 0.00 0.00 94 1015.2
20260510123412 76 132 0.0 0.0 0.00 0.00 0.00 94 1015.2
20260510122412 75 132 0.0 0.0 0.00 0.00 0.00 94 1015.1
20260510121912 75 132 0.0 0.0 0.00 0.00 0.00 94 1014.9
20260510121412 74 132 0.0 0.0 0.00 0.00 0.00 94 1014.9
20260510120912 74 132 0.0 0.0 0.00 0.00 0.00 94 1014.8
20260510120411 74 132 0.0 0.0 0.00 0.00 0.00 94 1014.8
20260510115910 74 132 0.0 0.0 0.00 0.00 0.00 94 1014.7
20260510115410 73 132 0.0 0.0 0.00 0.00 0.00 93 1014.7
20260510114910 73 132 0.0 0.0 0.00 0.00 0.00 93 1014.6
20260510114410 73 132 0.0 0.0 0.00 0.00 0.00 94 1014.5
20260510113907 73 132 0.0 0.0 0.00 0.00 0.00 94 1014.4
20260510113408 73 132 0.0 0.0 0.00 0.00 0.00 94 1014.3
20260510112905 73 132 0.0 0.0 0.00 0.00 0.00 94 1014.3
20260510112411 73 132 0.0 0.0 0.00 0.00 0.00 93 1014.1
20260510112406 73 132 0.0 0.0 0.00 0.00 0.00 93 1014.3
20260510111905 73 132 0.0 0.0 0.00 0.00 0.00 93 1014.2
20260510110905 73 132 0.0 0.0 0.00 0.00 0.00 93 1014.0
20260510110405 73 132 0.0 0.0 0.00 0.00 0.00 93 1013.9
20260510105904 73 132 0.0 0.0 0.00 0.00 0.00 93 1013.8
20260510105403 73 132 0.0 0.0 0.00 0.00 0.00 93 1013.7
20260510104906 73 132 0.0 0.0 0.00 0.00 0.00 93 1013.6
20260510104902 73 132 0.0 0.0 0.00 0.00 0.00 93 1013.7
20260510103901 73 132 0.0 0.0 0.00 0.00 0.00 93 1013.5
20260510103401 72 132 0.0 0.0 0.00 0.00 0.00 93 1013.5
20260510102902 73 132 0.0 0.0 0.00 0.00 0.00 93 1013.4
20260510102401 73 132 0.0 0.0 0.00 0.00 0.00 93 1013.4
20260510101901 73 132 0.0 0.0 0.00 0.00 0.00 93 1013.3
20260510101401 73 132 0.0 0.0 0.00 0.00 0.00 93 1013.3
20260510100902 73 132 0.0 0.0 0.00 0.00 0.00 93 1013.2
20260510100401 73 132 0.0 0.0 0.00 0.00 0.00 93 1013.1
20260510095902 73 132 0.0 0.0 0.00 0.00 0.00 93 1013.1
20260510095401 73 132 0.0 0.0 0.00 0.00 0.00 93 1013.0
20260510094901 73 132 0.0 0.0 0.00 0.00 0.00 93 1013.0
20260510094401 73 132 0.0 0.0 0.00 0.00 0.00 93 1013.0
20260510093906 73 132 0.0 0.0 0.00 0.00 0.00 93 1013.0
20260510093901 73 132 0.0 0.0 0.00 0.00 0.00 93 1012.9
20260510092906 73 132 0.0 0.0 0.00 0.00 0.00 93 1012.9
20260510092901 73 132 0.0 0.0 0.00 0.00 0.00 93 1012.9
20260510091859 73 132 0.0 0.0 0.00 0.00 0.00 93 1012.9
20260510091404 73 132 0.0 0.0 0.00 0.00 0.00 93 1012.8
20260510091400 73 132 0.0 0.0 0.00 0.00 0.00 93 1012.8
20260510090859 73 132 0.0 0.0 0.00 0.00 0.00 93 1012.8
20260510085859 73 132 0.0 0.0 0.00 0.00 0.00 93 1012.7
20260510085359 72 132 0.0 0.0 0.00 0.00 0.00 93 1012.7
20260510084903 72 132 0.0 0.0 0.00 0.00 0.00 93 1012.8
20260510084858 72 132 0.0 0.0 0.00 0.00 0.00 93 1012.7
20260510083858 72 132 0.0 0.0 0.00 0.00 0.00 93 1012.8
20260510083357 72 132 0.0 0.0 0.00 0.00 0.00 93 1012.7
20260510082857 72 132 0.0 0.0 0.00 0.00 0.00 93 1012.9
20260510082358 72 132 0.0 0.0 0.00 0.00 0.00 93 1012.9
20260510081857 72 132 0.0 0.0 0.00 0.00 0.00 93 1012.7
20260510081356 72 132 0.0 0.0 0.00 0.00 0.00 93 1012.8
20260510080855 72 132 0.0 0.0 0.00 0.00 0.00 93 1012.8
20260510080355 72 132 0.0 0.0 0.00 0.00 0.00 93 1012.9
20260510075856 72 132 0.0 0.0 0.00 0.00 0.00 92 1012.9
20260510075355 72 132 0.0 0.0 0.00 0.00 0.00 92 1012.9
20260510074856 72 132 0.0 0.0 0.00 0.00 0.00 92 1012.9
20260510074355 72 132 0.0 0.0 0.00 0.00 0.00 93 1012.9
20260510073855 72 132 0.0 0.0 0.00 0.00 0.00 93 1012.9
20260510073356 72 132 0.0 0.0 0.00 0.00 0.00 93 1013.0
20260510072859 72 132 0.0 0.0 0.00 0.00 0.00 93 1012.9
20260510072854 72 132 0.0 0.0 0.00 0.00 0.00 92 1013.1
20260510072500 72 132 0.0 0.0 0.00 0.00 0.00 92 1013.1
20260510071353 72 132 0.0 0.0 0.00 0.00 0.00 92 1013.1
20260510070854 72 132 0.0 0.0 0.00 0.00 0.00 92 1013.1
20260510070352 72 132 0.0 0.0 0.00 0.00 0.00 92 1013.1
20260510065852 72 132 0.0 0.0 0.00 0.00 0.00 92 1013.2
20260510065351 72 132 0.0 0.0 0.00 0.00 0.00 92 1013.2
20260510064851 72 132 0.0 0.0 0.00 0.00 0.00 92 1013.3
20260510064351 72 132 0.0 0.0 0.00 0.00 0.00 92 1013.3
20260510063851 72 132 0.0 0.0 0.00 0.00 0.00 92 1013.2
20260510063349 72 132 0.0 0.0 0.00 0.00 0.00 92 1013.4
20260510062848 72 132 0.0 0.0 0.00 0.00 0.00 92 1013.4
20260510062350 72 132 0.0 0.0 0.00 0.00 0.00 92 1013.4
20260510061849 72 132 0.0 0.0 0.00 0.00 0.00 92 1013.5
20260510061348 72 132 0.0 0.0 0.00 0.00 0.00 92 1013.4
20260510060847 72 132 0.0 0.0 0.00 0.00 0.00 92 1013.5
20260510060348 72 132 0.0 0.0 0.00 0.00 0.00 92 1013.5
20260510055846 72 132 0.0 0.0 0.00 0.00 0.00 92 1013.6
20260510055347 72 132 0.0 0.0 0.00 0.00 0.00 92 1013.6
20260510054847 73 132 0.0 0.0 0.00 0.00 0.00 92 1013.6
20260510054346 73 132 0.0 0.0 0.00 0.00 0.00 92 1013.6
20260510053845 73 132 0.0 0.0 0.00 0.00 0.00 91 1013.7
20260510053345 73 132 0.0 0.0 0.00 0.00 0.00 91 1013.8
20260510052845 73 132 0.0 0.0 0.00 0.00 0.00 91 1013.9
20260510052345 73 132 0.0 0.0 0.00 0.00 0.00 91 1014.0
20260510051845 73 132 0.0 0.0 0.00 0.00 0.00 91 1014.2
20260510051344 73 132 0.0 0.0 0.00 0.00 0.00 91 1014.3
20260510050845 73 132 0.0 0.0 0.00 0.00 0.00 91 1014.5
20260510050345 73 132 0.0 0.0 0.00 0.00 0.00 91 1014.6
20260510045849 73 132 0.0 0.0 0.00 0.00 0.00 91 1014.5
20260510045845 73 132 0.0 0.0 0.00 0.00 0.00 91 1014.5
20260510044844 73 132 0.0 0.0 0.00 0.00 0.00 91 1014.4
20260510044345 73 132 0.0 0.0 0.00 0.00 0.00 91 1014.5
20260510043845 73 132 0.0 0.0 0.00 0.00 0.00 91 1014.5
20260510043345 73 132 0.0 0.0 0.00 0.00 0.00 91 1014.5
20260510042845 73 132 0.0 0.0 0.00 0.00 0.00 91 1014.6
20260510042344 73 132 0.0 0.0 0.00 0.00 0.00 91 1014.5
20260510041846 74 132 0.0 0.0 0.00 0.00 0.00 91 1014.5
20260510041345 74 132 0.0 0.0 0.00 0.00 0.00 91 1014.4
20260510040844 74 132 0.0 0.0 0.00 0.00 0.00 90 1014.4
20260510040348 74 132 0.0 0.0 0.00 0.00 0.00 90 1014.4
20260510040344 74 132 0.0 0.0 0.00 0.00 0.00 90 1014.3
20260510035341 74 132 0.0 0.0 0.00 0.00 0.00 90 1014.4
20260510034842 74 132 0.0 0.0 0.00 0.00 0.00 90 1014.4
20260510034342 74 132 0.0 0.0 0.00 0.00 0.00 90 1014.2
20260510033842 74 132 0.0 0.0 0.00 0.00 0.00 90 1014.3
20260510033342 74 132 0.0 0.0 0.00 0.00 0.00 90 1014.1
20260510032842 74 132 0.0 0.0 0.00 0.00 0.00 90 1014.1
20260510032341 74 132 0.0 0.0 0.00 0.00 0.00 90 1014.2
20260510031842 74 132 0.0 0.0 0.00 0.00 0.00 90 1014.2
20260510031342 74 132 0.0 0.0 0.00 0.00 0.00 90 1014.3
20260510030843 74 132 0.0 0.0 0.00 0.00 0.00 89 1014.3
20260510030342 74 132 0.0 0.0 0.00 0.00 0.00 89 1014.4
20260510025846 75 132 0.0 0.0 0.00 0.00 0.00 89 1014.2
20260510025842 75 132 0.0 0.0 0.00 0.00 0.00 89 1014.3
20260510024846 75 132 0.0 0.0 0.00 0.00 0.00 89 1014.2
20260510024842 75 132 0.0 0.0 0.00 0.00 0.00 89 1014.2
20260510023842 75 132 0.0 0.0 0.00 0.00 0.00 88 1014.2
20260510023345 75 132 0.0 0.0 0.00 0.00 0.00 88 1014.3
20260510023341 75 132 0.0 0.0 0.00 0.00 0.00 88 1014.3
20260510022342 76 132 0.0 0.0 0.00 0.00 0.00 88 1014.3
20260510021842 76 132 0.0 0.0 0.00 0.00 0.00 88 1014.1
20260510021342 76 132 0.0 0.0 0.00 0.00 0.00 88 1014.2
20260510020841 76 132 0.0 0.0 0.00 0.00 0.00 88 1014.1
20260510020342 76 132 0.0 0.0 0.00 0.00 0.00 87 1014.0
20260510015842 76 132 0.0 0.0 0.00 0.00 0.00 87 1014.1
20260510015341 76 132 0.0 0.0 0.00 0.00 0.00 87 1014.1
20260510014842 76 132 0.0 0.0 0.00 0.00 0.00 87 1014.1
20260510014340 76 132 0.0 0.0 0.00 0.00 0.00 87 1014.0
20260510013843 76 132 0.0 0.0 0.00 0.00 0.00 87 1013.8
20260510013839 76 132 0.0 0.0 0.00 0.00 0.00 87 1013.9
20260510012837 76 132 0.0 0.0 0.00 0.00 0.00 87 1013.8
20260510012338 76 132 0.0 0.0 0.00 0.01 0.00 87 1013.8
20260510011837 76 132 0.0 0.0 0.00 0.01 0.00 87 1013.6
20260510011343 76 132 0.0 0.0 0.00 0.02 0.00 87 1013.5
20260510011338 76 132 0.0 0.0 0.00 0.01 0.00 87 1013.6
20260510010339 76 132 0.0 0.0 0.00 0.03 0.00 86 1013.5
20260510005838 76 132 0.0 0.0 0.00 0.03 0.00 87 1013.5
20260510005336 76 132 0.0 0.0 0.00 0.05 0.00 87 1013.5
20260510004835 76 132 0.0 0.0 0.00 0.07 0.00 87 1013.4
20260510004340 76 132 0.0 0.0 0.00 0.08 0.00 86 1012.9
20260510004335 76 132 0.0 0.0 0.00 0.08 0.00 86 1013.2
20260510003333 77 132 0.0 0.0 0.00 0.08 0.00 86 1013.0
20260510002831 77 132 0.0 0.0 0.00 0.08 0.00 86 1013.0
20260510002332 77 132 0.0 0.0 0.00 0.08 0.00 85 1013.0
20260510001836 77 132 0.0 0.0 0.00 0.08 0.00 85 1012.9
20260510001832 77 132 0.0 0.0 0.00 0.08 0.00 85 1013.0
20260510000832 77 279 0.0 0.0 0.00 0.08 0.00 85 1012.8
20260510000333 77 279 0.0 0.0 0.00 0.08 0.00 85 1012.7
20260509235833 78 279 0.0 0.0 0.00 0.08 0.00 85 1012.6
20260509235331 78 279 0.0 0.0 0.00 0.08 0.00 84 1012.5
20260509234829 78 279 0.0 0.0 0.00 0.08 0.00 84 1012.5
20260509234335 78 157 0.0 0.0 0.00 0.08 0.00 83 1012.4
20260509234331 78 279 0.0 0.0 0.00 0.08 0.00 83 1012.4
20260509233329 78 157 0.0 0.0 0.00 0.08 0.00 83 1012.4
20260509232829 78 93 0.0 0.0 0.00 0.08 0.00 83 1012.3
20260509232333 79 196 0.0 0.0 0.00 0.08 0.00 83 1012.3
20260509232329 78 196 0.0 0.0 0.00 0.08 0.00 83 1012.3
20260509231331 79 148 0.0 0.0 0.00 0.08 0.00 83 1012.2
20260509230829 79 33 0.0 0.0 0.00 0.08 0.00 83 1012.1
20260509230328 79 34 0.0 0.0 0.00 0.08 0.00 83 1012.0
20260509225828 79 35 0.0 0.0 0.00 0.08 0.00 84 1011.9
20260509225332 79 205 0.0 0.0 0.00 0.08 0.00 84 1011.6
20260509225327 79 248 0.0 0.0 0.00 0.08 0.00 84 1011.7
20260509224827 79 163 0.0 0.0 0.00 0.08 0.00 84 1011.6
20260509223831 79 333 0.0 0.0 0.00 0.08 0.00 84 1011.6
20260509223827 79 328 0.0 0.0 0.00 0.08 0.00 84 1011.6
20260509222827 79 340 0.0 0.0 0.00 0.08 0.00 84 1011.6
20260509222332 79 103 0.0 0.0 0.00 0.08 0.00 84 1011.7
20260509222327 79 42 0.0 0.0 0.00 0.08 0.00 84 1011.6
20260509221326 79 15 0.0 0.0 0.00 0.08 0.00 84 1011.6
20260509220826 79 36 0.0 0.0 0.00 0.08 0.00 84 1011.6
20260509220325 79 117 0.0 0.0 0.00 0.08 0.00 84 1011.5
20260509215823 79 142 0.0 0.0 0.00 0.08 0.00 84 1011.4
20260509215323 80 139 0.0 0.0 0.00 0.08 0.00 83 1011.4
20260509214822 80 20 0.0 0.0 0.00 0.08 0.00 83 1011.3
20260509214323 80 192 0.0 0.0 0.00 0.08 0.00 83 1011.2
20260509213823 80 65 0.0 0.0 0.00 0.08 0.00 84 1011.2
20260509213323 79 67 0.0 0.0 0.00 0.08 0.00 85 1011.1
20260509212823 79 67 0.0 0.0 0.00 0.08 0.00 85 1011.1
20260509212323 79 67 0.0 0.0 0.00 0.08 0.00 84 1011.2
20260509211821 80 69 0.0 0.0 0.00 0.08 0.00 82 1011.2
20260509211325 83 30 0.0 0.0 0.00 0.08 0.00 75 1011.3
20260509211321 81 19 0.0 0.0 0.00 0.08 0.00 78 1011.3
20260509210320 85 55 0.0 0.0 0.00 0.08 0.00 73 1011.6
20260509205821 86 262 0.0 0.0 0.00 0.08 0.00 70 1011.7
20260509205321 86 303 0.0 0.0 0.00 0.08 0.00 69 1011.0
20260509204820 85 244 0.0 0.0 0.00 0.08 0.00 74 1010.7